Terug naar catalogus

DRESDEN

ActiefWetenschapSSO
NORAD 65297·PAYLOAD·🇷🇼 Rwanda

Gelanceerd Aug 23, 2025 vanaf Rocket Lab Launch Complex 1

Loading…

Volgende Passages (komende 24 uur)

TLE

VersSource: Space-Track

Epoch: Sep 14, 2026, 04:15 UTC

1 65297U 25185A   26257.17757593  .00006092  00000-0  79511-3 0  9999
2 65297  97.9620 339.7636 0015370 154.6891 205.5078 14.80797181 56993

Volg DRESDEN in realtime met AllMySat

Download on the App Store